Almaty, Kazakhstan

12:29 AM +06 on August 19, 2017 (GMT +0600)
Almaty

Weather History for UAAA - April, 2012

Change the Weather History Date:

Friday, April 20, 2012

  Actual Average Record
Temperature  
Mean Temperature 68 °F -  
Max Temperature 84 °F 61 °F 84 °F (2012)
Min Temperature 53 °F 40 °F 26 °F (1998)
Cooling Degree Days 4    
Growing Degree Days 18 (Base 50)    
Moisture  
Dew Point 37 °F    
Average Humidity 36    
Maximum Humidity 66    
Minimum Humidity 10    
Precipitation  
Precipitation 0.00 in - - ()
Sea Level Pressure  
Sea Level Pressure 29.75 in    
Wind  
Wind Speed 4 mph ()    
Max Wind Speed 9 mph    
Max Gust Speed -    
Visibility 6.1 miles    
Events      
Averages and records for this station are not official NWS values.
T = Trace of Precipitation, MM = Missing Value Source: Averaged Metar Reports

Daily Weather History Graph

Daily Weather History Graph

Search for Another Location

Airport or City:

Trip Planner

Search our weather history database for the weather conditions in past years. The results will help you decide how hot, cold, wet, or windy it might be!

Date:

Astronomy

Apr. 20, 2012 Rise Set
Actual Time 6:01 AM +06 7:41 PM +06
Civil Twilight 5:31 AM +06 8:11 PM +06
Nautical Twilight 4:55 AM +06 8:47 PM +06
Astronomical Twilight 4:16 AM +06 9:27 PM +06
Moon 5:12 AM +06 (4/20) 6:59 PM +06 (4/20)
Length of Visible Light 14h 39m
Length of Day
13h 39m
Waning Crescent, 1% of the Moon is Illuminated
Apr 20
Waning Crescent
Apr 21
New
Apr 29
First Quarter
May 6
Full
May 13
Last Quarter

Hourly Weather History & Observations

Time (+06) Temp. Dew Point Humidity Pressure Visibility Wind Dir Wind Speed Gust Speed Precip Events Conditions
12:00 AM 63 °F 38 °F 29% 29.73 in - Calm Calm - -  
12:00 AM 53.6 °F 37.4 °F 54% 29.77 in 6.2 mi South 4.5 mph - N/A   Unknown
12:30 AM 51.8 °F 37.4 °F 58% 29.77 in 6.2 mi SSE 6.7 mph - N/A   Unknown
1:00 AM 53.6 °F 37.4 °F 54% 29.77 in 6.2 mi SSE 6.7 mph - N/A   Unknown
1:30 AM 51.8 °F 37.4 °F 58% 29.74 in 6.2 mi SSE 6.7 mph - N/A   Unknown
2:00 AM 50.0 °F 37.4 °F 62% 29.74 in 6.2 mi Variable 2.2 mph - N/A   Unknown
2:30 AM 50.0 °F 37.4 °F 62% 29.74 in 6.2 mi Variable 2.2 mph - N/A   Unknown
3:00 AM 63 °F 34 °F 22% 29.70 in - Calm Calm - -  
3:00 AM 51.8 °F 37.4 °F 58% 29.74 in 6.2 mi SSW 4.5 mph - N/A   Unknown
3:30 AM 50.0 °F 37.4 °F 62% 29.74 in 6.2 mi SSE 4.5 mph - N/A   Partly Cloudy
4:00 AM 48.2 °F 37.4 °F 66% 29.77 in 6.2 mi SSE 2.2 mph - N/A   Partly Cloudy
4:30 AM 48.2 °F 37.4 °F 66% 29.77 in 6.2 mi SE 4.5 mph - N/A   Partly Cloudy
5:00 AM 48.2 °F 35.6 °F 62% 29.77 in 6.2 mi SSE 4.5 mph - N/A   Scattered Clouds
5:30 AM 48.2 °F 35.6 °F 62% 29.77 in 6.2 mi SE 6.7 mph - N/A   Scattered Clouds
6:00 AM 55 °F 36 °F 37% 29.75 in 6 mi Calm Calm - -  
6:00 AM 48.2 °F 35.6 °F 62% 29.74 in 6.2 mi SSW 6.7 mph - N/A   Scattered Clouds
6:30 AM 50.0 °F 35.6 °F 58% 29.77 in 6.2 mi SSW 6.7 mph - N/A   Partly Cloudy
7:00 AM 51.8 °F 37.4 °F 58% 29.77 in 6.2 mi Variable 2.2 mph - N/A   Partly Cloudy
7:30 AM 55.4 °F 41.0 °F 58% 29.77 in 6.2 mi Variable 2.2 mph - N/A   Unknown
8:00 AM 60.8 °F 41.0 °F 48% 29.80 in 6.2 mi Variable 2.2 mph - N/A   Unknown
8:30 AM 64.4 °F 35.6 °F 34% 29.77 in 6.2 mi Variable 2.2 mph - N/A   Unknown
9:00 AM 70 °F 38 °F 20% 29.68 in 12 mi Calm Calm - -  
9:00 AM 66.2 °F 35.6 °F 32% 29.80 in 6.2 mi Variable 2.2 mph - N/A   Unknown
9:30 AM 68.0 °F 35.6 °F 30% 29.80 in 6.2 mi Variable 2.2 mph - N/A   Unknown
10:00 AM 69.8 °F 39.2 °F 33% 29.77 in 6.2 mi Variable 2.2 mph - N/A   Unknown
10:30 AM 73.4 °F 35.6 °F 25% 29.77 in 6.2 mi Variable 2.2 mph - N/A   Partly Cloudy
11:00 AM 77.0 °F 37.4 °F 24% 29.77 in 6.2 mi NNW 4.5 mph - N/A   Partly Cloudy
11:30 AM 77.0 °F 37.4 °F 24% 29.77 in 6.2 mi West 4.5 mph - N/A   Scattered Clouds
12:00 PM 78 °F 38 °F 14% 29.64 in 6 mi South 2.2 mph - -   Clear
12:00 PM 78.8 °F 35.6 °F 21% 29.77 in 6.2 mi Variable 2.2 mph - N/A   Scattered Clouds
12:30 PM 78.8 °F 37.4 °F 23% 29.77 in 6.2 mi NNE 4.5 mph - N/A   Scattered Clouds
1:00 PM 80.6 °F 35.6 °F 20% 29.77 in 6.2 mi NW 4.5 mph - N/A   Scattered Clouds
1:30 PM 82.4 °F 33.8 °F 17% 29.77 in 6.2 mi NNW 4.5 mph - N/A   Scattered Clouds
2:00 PM 82.4 °F 37.4 °F 20% 29.77 in 6.2 mi NNE 4.5 mph - N/A   Partly Cloudy
2:30 PM 84.2 °F 32.0 °F 15% 29.74 in 6.2 mi SSE 4.5 mph - N/A   Partly Cloudy
3:00 PM 83 °F 36 °F 10% 29.60 in 6 mi SSE 2.2 mph - -   Scattered Clouds
3:00 PM 84.2 °F 32.0 °F 15% 29.74 in 6.2 mi North 4.5 mph - N/A   Partly Cloudy
3:30 PM 84.2 °F 35.6 °F 18% 29.74 in 6.2 mi NW 6.7 mph - N/A   Partly Cloudy
4:00 PM 86.0 °F 37.4 °F 18% 29.74 in 6.2 mi WNW 8.9 mph - N/A   Partly Cloudy
4:30 PM 84.2 °F 30.2 °F 14% 29.74 in 6.2 mi NW 8.9 mph - N/A   Partly Cloudy
5:00 PM 84.2 °F 32.0 °F 15% 29.74 in 6.2 mi NW 6.7 mph - N/A   Partly Cloudy
5:30 PM 84.2 °F 32.0 °F 15% 29.74 in 6.2 mi NW 8.9 mph - N/A   Partly Cloudy
6:00 PM 80 °F 44 °F 18% 29.59 in 6 mi NE 2.2 mph - -   Clear
6:00 PM 82.4 °F 37.4 °F 20% 29.74 in 6.2 mi NNW 6.7 mph - N/A   Partly Cloudy
6:30 PM 82.4 °F 41.0 °F 23% 29.74 in 6.2 mi NW 6.7 mph - N/A   Scattered Clouds
7:00 PM 80.6 °F 37.4 °F 21% 29.74 in 6.2 mi NNW 4.5 mph - N/A   Scattered Clouds
7:30 PM 75.2 °F 41.0 °F 29% 29.74 in 6.2 mi NE 4.5 mph - N/A   Scattered Clouds
8:00 PM 71.6 °F 41.0 °F 33% 29.74 in 6.2 mi ENE 4.5 mph - N/A   Scattered Clouds
8:30 PM 68.0 °F 41.0 °F 37% 29.77 in 3.1 mi SSE 6.7 mph - N/A   Smoke
9:00 PM 73 °F 37 °F 17% 29.67 in - SE 2.2 mph - -  
9:00 PM 66.2 °F 41.0 °F 40% 29.77 in 2.2 mi South 4.5 mph - N/A   Smoke
9:30 PM 64.4 °F 39.2 °F 40% 29.77 in - South 4.5 mph - N/A   Smoke
10:00 PM 62.6 °F 41.0 °F 45% 29.77 in 3.1 mi SSW 4.5 mph - N/A   Smoke
10:30 PM 62.6 °F 41.0 °F 45% 29.77 in 6.2 mi SE 4.5 mph - N/A   Partly Cloudy
11:00 PM 60.8 °F 41.0 °F 48% 29.77 in 6.2 mi SSE 4.5 mph - N/A   Partly Cloudy
11:30 PM 62.6 °F 39.2 °F 42% 29.74 in 6.2 mi SE 6.7 mph - N/A   Partly Cloudy